1496829600.03,5861,18.06,73796.8,9.59,3.53,3.33,0,*44
1496829601.29,5862,18.06,73802.3,9.61,3.67,3.49,0,*46
1496829602.49,5863,18.06,73802.0,9.61,4.27,4.19,0,*46
1496829603.65,5864,18.06,73800.8,9.63,3.85,3.85,0,*4E
1496829604.85,5865,18.06,73798.0,9.65,4.33,4.33,0,*49
1496829606.05,5866,18.06,73798.8,9.67,4.59,4.49,0,*49
1496829607.25,5867,18.06,73794.0,9.69,4.27,4.23,0,*43
1496829608.44,5868,18.06,73794.3,9.69,4.23,4.15,0,*4D
1496829609.61,5869,18.06,73794.5,9.71,4.53,4.53,0,*40
1496829610.86,5870,18.06,73792.0,9.73,3.71,3.71,0,*4A
1496829612.09,5871,18.06,73792.8,9.73,3.59,3.49,0,*4A
1496829613.31,5872,18.06,73790.3,9.73,3.25,3.07,0,*48
1496829614.56,5873,18.06,73790.8,9.73,3.23,3.23,0,*49
1496829615.78,5874,18.06,73788.0,9.73,3.71,3.59,0,*44
1496829617.0,5875,18.06,73792.3,9.73,3.49,3.55,0,*42
1496829618.22,5876,18.06,73796.8,9.77,4.01,4.07,0,*4E
1496829619.4,5877,18.06,73792.8,9.79,3.89,3.89,0,*47
1496829620.56,5878,18.06,73796.3,9.79,3.55,3.63,0,*4D
1496829621.79,5879,18.06,73794.5,9.79,3.15,3.07,0,*4A
1496829623.03,5880,18.06,73796.3,9.77,3.53,3.49,0,*4A
1496829624.23,5881,18.06,73788.8,9.79,3.75,3.85,0,*41
1496829625.48,5882,18.06,73790.0,9.81,3.67,3.67,0,*4A
1496829626.73,5883,18.06,73796.8,9.81,3.33,3.33,0,*4B
1496829627.9,5884,18.06,73792.0,9.83,4.07,4.27,0,*4C
1496829629.1,5885,18.06,73792.8,9.83,3.93,4.01,0,*43
1496829630.32,5886,18.06,73794.0,9.83,2.51,2.55,0,*48
1496829631.55,5887,18.06,73792.5,9.83,2.55,2.51,0,*49
1496829632.77,5888,18.06,73794.3,9.81,1.85,1.79,0,*43
1496829633.99,5889,18.06,73790.5,9.81,1.71,1.75,0,*45
1496829635.22,5890,18.06,73792.3,9.77,2.47,2.61,0,*44
1496829636.47,5891,18.06,73796.3,9.77,2.39,2.43,0,*4C
1496829637.72,5892,18.06,73794.0,9.77,3.15,3.41,0,*43
1496829638.92,5893,18.06,73798.5,9.79,3.79,3.85,0,*4E
1496829640.17,5894,18.06,73796.3,9.81,3.67,3.67,0,*4D
1496829641.39,5895,18.06,73794.5,9.79,3.23,3.19,0,*42
1496829642.64,5896,18.06,73796.3,9.81,3.07,3.19,0,*40
1496829643.86,5897,18.06,73798.0,9.81,3.63,3.75,0,*49
1496829645.06,5898,18.06,73798.5,9.81,4.27,4.33,0,*44
1496829646.24,5899,18.06,73796.0,9.83,4.07,4.07,0,*42
1496829647.45,5900,18.06,73800.0,9.83,4.01,4.01,0,*43
1496829648.63,5901,18.06,73800.5,9.87,4.45,4.57,0,*45
1496829649.83,5902,18.06,73796.3,9.85,4.19,4.41,0,*4A
1496829651.0,5903,18.06,73796.5,9.87,4.23,4.41,0,*40
1496829652.22,5904,18.06,73798.3,9.89,4.67,4.81,0,*45
1496829653.45,5905,18.06,73798.5,9.89,4.59,4.85,0,*4D
1496829654.69,5906,18.06,73798.0,9.91,4.71,4.93,0,*4A
1496829655.89,5907,18.06,73800.3,9.95,4.57,4.79,0,*4F
1496829657.11,5908,18.06,73796.5,9.93,4.49,4.75,0,*45
1496829658.31,5909,18.06,73798.5,9.95,4.67,4.89,0,*4D
1496829659.51,5910,18.06,73798.0,9.99,4.31,4.45,0,*4A
1496829660.68,5911,18.06,73798.3,9.99,4.23,4.57,0,*4B
1496829661.9,5912,18.06,73800.3,10.03,4.71,5.07,0,*70
1496829663.13,5913,18.06,73798.5,10.03,4.59,4.97,0,*73
1496829664.34,5914,18.06,73798.8,10.05,4.41,4.75,0,*77
1496829665.55,5915,18.06,73794.5,10.09,4.33,4.79,0,*73
1496829666.79,5916,18.06,73796.8,10.07,4.53,5.01,0,*76
1496829667.96,5917,18.06,73798.8,10.09,3.85,4.23,0,*74
1496829669.2,5918,18.06,73796.0,10.11,4.23,4.71,0,*7E
1496829670.43,5919,18.06,73796.8,10.11,4.11,4.59,0,*74
1496829671.7,5920,18.06,73796.8,10.11,4.31,4.93,0,*7A
1496829672.9,5921,18.06,73794.3,10.13,4.41,4.93,0,*7E
1496829674.11,5922,18.06,73796.3,10.15,4.85,5.33,0,*78
1496829675.29,5923,18.06,73794.0,10.17,5.23,5.67,0,*77
1496829676.49,5924,18.06,73792.5,10.17,5.07,5.55,0,*77
1496829677.69,5925,18.06,73790.8,10.23,4.89,5.37,0,*72
1496829678.89,5926,18.06,73792.5,10.23,5.11,5.49,0,*78
1496829680.11,5927,18.06,73792.8,10.27,4.93,5.29,0,*70
1496829681.32,5928,18.06,73794.8,10.27,4.11,4.37,0,*7B
1496829682.49,5929,18.06,73792.3,10.29,3.85,4.19,0,*72
1496829683.67,5930,18.06,73794.8,10.29,3.93,4.19,0,*7D
1496829684.91,5931,18.06,73792.8,10.27,3.53,3.79,0,*7F
1496829686.15,5932,18.06,73792.8,10.27,4.27,4.63,0,*74
1496829687.41,5933,18.06,73792.5,10.27,4.71,5.05,0,*77
1496829688.61,5934,18.06,73794.3,10.31,4.23,4.45,0,*75
1496829689.86,5935,18.06,73794.5,10.31,3.97,4.31,0,*7F
1496829691.07,5936,18.06,73790.8,10.31,4.07,4.41,0,*75
1496829692.25,5937,18.06,73794.0,10.33,4.23,4.57,0,*77
1496829693.48,5938,18.06,73794.3,10.35,4.01,4.33,0,*7C
1496829694.69,5939,18.06,73794.5,10.35,4.01,4.27,0,*78
1496829695.91,5940,18.06,73792.5,10.35,3.79,4.11,0,*7B
1496829697.14,5941,18.06,73792.5,10.37,3.97,4.37,0,*7C
1496829698.38,5942,18.06,73794.0,10.37,4.37,4.67,0,*77
1496829699.59,5943,18.06,73792.8,10.39,4.49,5.01,0,*70
1496829700.78,5944,18.06,73794.5,10.41,3.85,4.11,0,*7F
1496829702.04,5945,18.06,73794.0,10.41,3.15,3.49,0,*7D
1496829703.29,5946,18.06,73790.5,10.41,2.55,2.89,0,*76
1496829704.52,5947,18.06,73792.3,10.39,2.77,2.89,0,*78
1496829705.73,5948,18.06,73794.5,10.39,3.25,3.49,0,*7C
1496829706.97,5949,18.06,73790.8,10.39,3.07,3.15,0,*74
1496829708.22,5950,18.06,73794.5,10.41,3.49,3.75,0,*7F
1496829709.44,5951,18.06,73792.5,10.41,2.77,2.91,0,*79
1496829710.64,5952,18.06,73794.5,10.39,3.33,3.55,0,*7D
1496829711.88,5953,18.06,73792.8,10.45,3.53,3.75,0,*73
1496829713.11,5954,18.06,73790.3,10.45,2.95,3.15,0,*79
1496829714.36,5955,18.06,73794.8,10.41,3.53,3.71,0,*75
1496829715.56,5956,18.06,73792.8,10.45,4.11,4.15,0,*76
1496829716.76,5957,18.06,73792.5,10.45,4.27,4.37,0,*72
1496829717.97,5958,18.06,73794.8,10.49,3.81,3.93,0,*73
1496829719.17,5959,18.06,73794.5,10.49,3.93,3.93,0,*71
1496829720.36,5960,18.06,73794.0,10.51,4.07,4.07,0,*72
1496829721.53,5961,18.06,73794.8,10.51,4.41,4.41,0,*73
1496829722.71,5962,18.06,73790.3,10.51,4.15,4.19,0,*7C
1496829723.93,5963,18.06,73794.8,10.53,4.79,4.81,0,*74
1496829725.18,5964,18.06,73794.5,10.53,4.93,5.05,0,*7A
1496829726.39,5965,18.06,73792.3,10.59,4.89,5.01,0,*7E
1496829727.62,5966,18.06,73796.8,10.57,4.79,4.85,0,*71
1496829728.86,5967,18.06,73792.3,10.57,4.01,4.05,0,*77
1496829730.06,5968,18.06,73790.8,10.61,4.45,4.57,0,*7A
1496829731.27,5969,18.06,73790.5,10.59,4.71,4.89,0,*74
1496829732.47,5970,18.06,73794.5,10.63,4.57,4.63,0,*75
1496829733.7,5971,18.06,73794.0,10.63,4.67,4.79,0,*7C
1496829734.87,5972,18.06,73792.8,10.63,4.41,4.57,0,*77
1496829736.04,5973,18.06,73788.5,10.63,3.59,3.85,0,*70
1496829737.27,5974,18.06,73790.5,10.63,3.33,3.49,0,*7B
1496829738.47,5975,18.06,73790.0,10.63,2.99,3.11,0,*76
1496829739.69,5976,18.06,73788.8,10.61,3.23,3.25,0,*70
1496829740.91,5977,18.06,73788.8,10.61,2.91,3.11,0,*7E
1496829742.14,5978,18.06,73788.8,10.61,1.93,1.79,0,*7C
1496829743.38,5979,18.06,73794.5,10.57,2.13,2.09,0,*77
1496829744.59,5980,18.06,73788.5,10.55,2.91,3.03,0,*72
1496829745.82,5981,18.06,73788.8,10.53,3.71,3.81,0,*70
1496829746.99,5982,18.06,73788.5,10.55,4.27,4.27,0,*7A
1496829748.22,5983,18.06,73790.5,10.55,3.79,3.79,0,*7B
1496829749.42,5984,18.06,73788.3,10.57,4.15,4.33,0,*7A
1496829750.61,5985,18.06,73788.3,10.55,4.15,4.33,0,*79
1496829751.83,5986,18.06,73788.8,10.57,4.45,4.59,0,*71
1496829753.05,5987,18.06,73788.0,10.57,3.85,4.01,0,*76
1496829754.22,5988,18.06,73794.0,10.55,4.11,4.23,0,*71
1496829755.48,5989,18.06,73792.0,10.57,4.67,4.93,0,*78
1496829756.72,5990,18.13,73794.0,10.57,3.97,4.01,0,*73
1496829757.95,5991,18.06,73794.8,10.57,3.67,3.89,0,*7A
1496829759.15,5992,18.06,73792.5,10.57,4.11,4.23,0,*78
1496829760.38,5993,18.06,73794.3,10.57,4.05,4.11,0,*7D
1496829761.61,5994,18.06,73794.0,10.57,3.07,3.25,0,*7F
1496829762.86,5995,18.06,73796.0,10.57,3.67,3.79,0,*71
1496829764.06,5996,18.06,73792.8,10.57,4.33,4.49,0,*70
1496829765.26,5997,18.06,73794.3,10.59,4.49,4.71,0,*79
1496829766.52,5998,18.06,73792.5,10.57,4.71,4.97,0,*7B
1496829767.72,5999,18.06,73792.8,10.61,4.33,4.53,0,*71
1496829768.92,6000,18.06,73796.0,10.61,5.11,5.33,0,*7D
1496829770.13,6001,18.13,73802.3,10.63,4.93,5.23,0,*74
1496829771.35,6002,18.06,73796.3,10.61,4.75,4.85,0,*70
1496829772.54,6003,18.06,73798.5,10.63,5.27,5.41,0,*7C
1496829773.74,6004,18.06,73796.3,10.69,5.67,5.93,0,*7A
1496829774.97,6005,18.06,73794.8,10.71,5.01,5.33,0,*78
1496829776.2,6006,18.06,73796.8,10.71,4.49,4.75,0,*75
1496829777.43,6007,18.06,73798.3,10.71,4.71,5.07,0,*7B
1496829778.66,6008,18.13,73796.8,10.71,5.33,5.81,0,*7D
1496829779.88,6009,18.06,73794.8,10.75,5.37,5.85,0,*78
1496829781.06,6010,18.06,73796.0,10.77,5.29,5.77,0,*70
1496829782.28,6011,18.06,73794.3,10.79,5.33,5.89,0,*75
1496829783.47,6012,18.13,73798.3,10.81,5.23,5.89,0,*70
1496829784.66,6013,18.06,73794.5,10.83,5.71,6.29,0,*7D
1496829785.86,6014,18.06,73796.3,10.89,6.21,6.65,0,*7E
1496829787.1,6015,18.06,73792.0,10.91,5.51,5.93,0,*78
1496829788.32,6016,18.13,73798.0,10.95,5.33,5.77,0,*71
1496829789.54,6017,18.06,73792.0,10.95,5.81,6.29,0,*71
1496829790.71,6018,18.06,73798.0,10.97,5.63,5.99,0,*78
1496829791.94,6019,18.06,73794.8,10.99,5.89,6.33,0,*70
1496829793.17,6020,18.06,73792.3,11.03,5.33,5.77,0,*7A
1496829794.38,6021,18.06,73794.8,11.03,5.23,5.67,0,*7B
1496829795.57,6022,18.06,73792.5,11.05,4.89,5.07,0,*79
1496829796.77,6023,18.13,73796.3,11.05,4.85,5.19,0,*7B
1496829797.95,6024,18.06,73792.8,11.05,5.29,5.67,0,*72
1496829799.16,6025,18.06,73794.3,11.11,5.23,5.67,0,*7C
1496829800.34,6026,18.06,73794.8,11.13,5.67,6.07,0,*78
1496829801.52,6027,18.13,73794.5,11.13,5.37,5.63,0,*7D
1496829802.76,6028,18.06,73792.3,11.15,4.67,4.85,0,*79
1496829803.97,6029,18.06,73790.5,11.13,3.63,3.75,0,*75
1496829805.23,6030,18.06,73792.8,11.15,4.59,4.97,0,*7E
1496829806.5,6031,18.06,73792.0,11.15,4.79,4.97,0,*7D
1496829807.73,6032,18.06,73788.5,11.15,4.85,4.97,0,*7D
1496829808.92,6033,18.06,73790.8,11.17,5.11,5.23,0,*7C
1496829810.19,6034,18.13,73792.8,11.19,4.93,4.93,0,*74
1496829811.42,6035,18.13,73794.3,11.19,4.01,4.19,0,*7C
1496829812.64,6036,18.06,73792.5,11.19,4.23,4.53,0,*71
1496829813.85,6037,18.13,73792.3,11.17,5.01,5.23,0,*79
1496829815.09,6038,18.06,73788.8,11.19,4.45,4.63,0,*7C
1496829816.34,6039,18.06,73792.5,11.19,5.01,5.23,0,*79
1496829817.55,6040,18.13,73794.5,11.21,5.05,5.37,0,*7D
1496829818.79,6041,18.06,73790.8,11.23,4.53,4.63,0,*7C
1496829820.02,6042,18.06,73788.0,11.23,4.01,4.27,0,*78
1496829821.24,6043,18.13,73790.8,11.23,3.93,4.07,0,*77
1496829822.48,6044,18.13,73790.5,11.23,4.53,4.75,0,*7E
1496829823.72,6045,18.06,73788.3,11.23,4.07,4.31,0,*7E
1496829824.92,6046,18.06,73790.5,11.23,5.07,5.29,0,*74
1496829826.11,6047,18.06,73786.8,11.25,5.41,5.67,0,*7B
1496829827.31,6048,18.06,73786.3,11.25,5.33,5.51,0,*74
1496829828.57,6049,18.13,73790.3,11.27,4.79,5.01,0,*7D
1496829829.83,6050,18.06,73790.0,11.27,4.63,4.79,0,*70
1496829831.01,6051,18.13,73790.8,11.29,3.93,4.11,0,*79
1496829832.2,6052,18.06,73786.8,11.29,4.53,4.57,0,*73
1496829833.41,6053,18.06,73788.3,11.29,4.31,4.41,0,*71
1496829834.61,6054,18.13,73790.0,11.29,3.97,4.11,0,*78
1496829835.82,6055,18.06,73788.0,11.29,4.67,4.81,0,*78
1496829837.02,6056,18.06,73784.3,11.29,4.67,4.81,0,*7B
1496829838.22,6057,18.13,73790.8,11.29,5.27,5.45,0,*76
1496829839.4,6058,18.13,73788.3,11.35,5.19,5.41,0,*7D
1496829840.64,6059,18.13,73790.0,11.37,4.63,4.81,0,*7F
1496829841.87,6060,18.13,73790.8,11.37,5.33,5.51,0,*7D
1496829843.08,6061,18.13,73790.5,11.39,5.15,5.27,0,*77
1496829844.29,6062,18.06,73788.5,11.39,4.23,4.31,0,*76
1496829845.5,6063,18.13,73790.3,11.41,5.11,5.23,0,*7A
1496829846.77,6064,18.13,73792.5,11.41,4.93,5.01,0,*76
1496829847.95,6065,18.06,73788.0,11.43,5.63,5.71,0,*7C
1496829849.15,6066,18.13,73788.3,11.43,5.63,5.77,0,*79
1496829850.33,6067,18.06,73788.0,11.47,5.41,5.45,0,*7D
1496829851.53,6068,18.13,73788.5,11.49,4.89,4.89,0,*78
1496829852.75,6069,18.13,73792.5,11.49,5.27,5.33,0,*7C
1496829853.95,6070,18.13,73788.3,11.49,5.11,5.15,0,*75
1496829855.17,6071,18.06,73790.3,11.49,5.15,5.27,0,*71
1496829856.37,6072,18.13,73792.5,11.51,5.85,6.07,0,*73
1496829857.58,6073,18.13,73790.3,11.53,6.07,6.21,0,*7D
1496829858.78,6074,18.13,73790.3,11.59,5.23,5.27,0,*70
1496829859.96,6075,18.06,73790.0,11.59,5.59,5.67,0,*78
1496829861.13,6076,18.13,73790.3,11.59,5.95,6.29,0,*72
1496829862.36,6077,18.13,73788.5,11.63,6.39,6.65,0,*77
1496829863.56,6078,18.13,73790.8,11.61,5.45,5.59,0,*7E
1496829864.77,6079,18.06,73788.5,11.65,4.81,5.01,0,*7F
1496829866.0,6080,18.13,73794.5,11.65,4.67,4.67,0,*70
1496829867.23,6081,18.06,73790.5,11.65,4.59,4.93,0,*77
1496829868.41,6082,18.06,73788.0,11.69,5.23,5.37,0,*7B
1496829869.62,6083,18.06,73790.0,11.67,5.33,5.45,0,*70
1496829870.82,6084,18.06,73790.3,11.69,4.49,4.67,0,*74
1496829872.06,6085,18.13,73788.8,11.71,4.89,5.01,0,*71
1496829873.24,6086,18.13,73790.0,11.69,4.41,4.49,0,*72
1496829874.44,6087,18.13,73792.0,11.71,4.49,4.57,0,*7D
1496829875.65,6088,18.13,73792.8,11.69,3.85,3.97,0,*77
1496829876.82,6089,18.06,73788.5,11.69,4.15,4.19,0,*79
1496829878.03,6090,18.13,73790.8,11.69,3.79,3.93,0,*79
1496829879.25,6091,18.13,73790.5,11.69,4.31,4.37,0,*7A
1496829880.43,6092,18.06,73788.0,11.69,4.15,4.19,0,*73
1496829881.65,6093,18.13,73788.5,11.69,3.97,3.97,0,*7E
1496829882.83,6094,18.13,73788.3,11.65,3.25,3.25,0,*75
1496829884.06,6095,18.13,73788.5,11.65,3.41,3.49,0,*7C
1496829885.24,6096,18.06,73786.5,11.65,3.85,3.85,0,*77
1496829886.46,6097,18.13,73788.3,11.65,2.21,2.09,0,*7C
1496829887.72,6098,18.13,73784.8,11.61,3.03,3.15,0,*7A
1496829888.95,6099,18.13,73784.3,11.61,3.55,3.45,0,*7D
1496829890.2,6100,18.13,73786.8,11.61,3.03,3.03,0,*7D
1496829891.43,6101,18.13,73784.3,11.61,2.31,2.21,0,*7D
1496829892.66,6102,18.13,73788.8,11.61,3.03,2.91,0,*75
1496829893.89,6103,18.13,73788.3,11.59,3.37,3.45,0,*70
1496829895.13,6104,18.13,73788.0,11.57,2.85,2.69,0,*7E
1496829896.36,6105,18.13,73790.8,11.57,1.01,0.91,0,*45
1496829897.55,6106,18.13,73788.3,11.51,0.05,0.13,0,*4F
1496829898.78,6107,18.13,73784.3,11.47,-0.89,-0.93,0,*75
1496829899.99,6108,18.13,73788.0,11.41,-1.29,-1.25,0,*7B
1496829901.21,6109,18.13,73788.0,11.37,-1.51,-1.51,0,*77
1496829902.4,6110,18.13,73788.5,11.29,-1.63,-1.51,0,*71
1496829903.61,6111,18.13,73786.8,11.25,-1.51,-1.39,0,*73
1496829904.81,6112,18.13,73786.0,11.21,0.05,0.13,0,*4D
1496829906.03,6113,18.06,73780.3,11.17,1.43,1.63,0,*7C
1496829907.27,6114,18.13,73782.8,11.17,1.09,1.21,0,*73
1496829908.51,6115,18.06,73780.8,11.15,2.43,2.65,0,*7E
1496829909.78,6116,18.13,73790.5,11.15,1.29,1.51,0,*76
1496829910.98,6117,18.13,73784.5,11.13,-0.07,0.21,0,*67
1496829912.23,6118,18.06,73782.3,11.07,-0.23,0.13,0,*5A
1496829913.47,6119,18.13,73784.8,11.07,0.75,1.43,0,*41
1496829914.68,6120,18.06,73784.5,11.05,1.05,1.43,0,*7F
1496829915.92,6121,18.13,73784.5,11.03,-1.17,-0.89,0,*4C
1496829917.12,6122,18.13,73786.3,10.97,-0.57,-0.23,0,*76
1496829918.31,6123,18.13,73786.3,10.95,1.05,1.41,0,*76
1496829919.56,6124,18.13,73784.5,10.95,2.13,2.55,0,*73
1496829920.81,6125,18.13,73786.5,10.95,2.39,2.85,0,*77
1496829922.0,6126,18.13,73784.3,10.95,1.05,1.41,0,*73
1496829923.25,6127,18.13,73790.5,10.91,1.67,2.17,0,*72
1496829924.47,6128,18.13,73788.3,10.91,1.41,1.67,0,*7D
1496829925.66,6129,18.13,73788.8,10.91,-0.29,0.05,0,*6B
1496829926.85,6130,18.13,73788.3,10.89,-0.11,0.37,0,*50
1496829928.03,6131,18.13,73784.5,10.85,0.51,1.05,0,*44
1496829929.27,6132,18.13,73792.5,10.83,0.95,1.37,0,*48
1496829930.46,6133,18.13,73790.0,10.81,1.05,1.43,0,*70
1496829931.71,6134,18.13,73788.3,10.79,1.67,2.25,0,*77
1496829932.93,6135,18.13,73790.8,10.79,1.85,2.27,0,*78
1496829934.11,6136,18.13,73788.8,10.77,0.63,0.97,0,*75
1496829935.35,6137,18.13,73790.3,10.79,1.55,1.89,0,*70
1496829936.52,6138,18.13,73788.3,10.77,2.31,2.65,0,*71
1496829937.74,6139,18.13,73794.8,10.77,1.97,2.25,0,*7B
1496829938.96,6140,18.13,73788.3,10.77,2.85,3.15,0,*77
1496829940.18,6141,18.13,73790.3,10.77,2.55,2.77,0,*7E
1496829941.4,6142,18.13,73788.5,10.77,1.97,2.09,0,*79
1496829942.62,6143,18.13,73788.3,10.79,2.61,2.89,0,*74
1496829943.84,6144,18.13,73788.8,10.77,2.43,2.69,0,*73
1496829945.03,6145,18.13,73788.5,10.77,2.77,2.91,0,*72
1496829946.22,6146,18.13,73788.5,10.77,2.65,2.77,0,*7A
1496829947.44,6147,18.13,73788.0,10.77,2.59,2.59,0,*78
1496829948.66,6148,18.13,73788.8,10.73,2.55,2.73,0,*77
1496829949.92,6149,18.13,73788.0,10.75,3.11,3.15,0,*70
1496829951.14,6150,18.13,73790.3,10.75,3.11,2.99,0,*7D
1496829952.31,6151,18.13,73790.0,10.73,2.31,2.27,0,*7C
1496829953.55,6152,18.13,73784.5,10.75,2.73,2.73,0,*7E
1496829954.78,6153,18.13,73784.8,10.73,2.81,2.77,0,*70
1496829956.0,6154,18.13,73784.8,10.71,2.89,2.99,0,*7D
1496829957.22,6155,18.13,73786.8,10.73,3.33,3.37,0,*7B
1496829958.41,6156,18.13,73786.3,10.73,2.81,2.99,0,*75
1496829959.61,6157,18.13,73784.0,10.73,3.25,3.45,0,*7B
1496829960.83,6158,18.13,73786.0,10.71,2.77,2.99,0,*70
1496829962.09,6159,18.13,73786.3,10.71,2.05,2.17,0,*72
1496829963.28,6160,18.13,73786.5,10.69,1.75,1.93,0,*7A
1496829964.47,6161,18.13,73788.5,10.67,2.09,2.27,0,*71
1496829965.66,6162,18.13,73788.8,10.63,0.83,0.97,0,*7F
1496829966.91,6163,18.13,73786.8,10.61,1.37,1.71,0,*7B
1496829968.14,6164,18.13,73786.8,10.59,2.25,2.59,0,*7E
1496829969.36,6165,18.13,73788.5,10.57,1.79,2.01,0,*76
1496829970.56,6166,18.13,73790.0,10.55,1.59,1.79,0,*79
1496829971.74,6167,18.13,73786.5,10.55,2.35,2.61,0,*7B
1496829972.99,6168,18.13,73790.0,10.53,1.71,1.85,0,*78
1496829974.21,6169,18.13,73790.8,10.53,-0.15,0.13,0,*59
1496829975.42,6170,18.13,73788.5,10.47,-0.41,-0.23,0,*7B
1496829976.65,6171,18.13,73784.5,10.41,0.25,0.51,0,*7B
1496829977.89,6172,18.13,73784.5,10.41,0.47,0.17,0,*7E
1496829979.11,6173,18.13,73784.3,10.37,0.09,0.21,0,*41
1496829980.31,6174,18.13,73782.8,10.33,0.75,0.83,0,*71
1496829981.53,6175,18.13,73786.3,10.33,1.63,1.97,0,*72
1496829982.73,6176,18.13,73790.5,10.33,-0.53,-0.23,0,*7D
1496829983.97,6177,18.13,73786.8,10.27,0.33,0.51,0,*7A
1496829985.15,6178,18.13,73788.3,10.25,0.43,0.63,0,*71
1496829986.35,6179,18.13,73786.8,10.21,-0.27,-0.19,0,*7B
1496829987.58,6180,18.13,73786.3,10.21,-1.13,-0.93,0,*49
1496829988.79,6181,18.13,73788.0,10.15,-0.57,-0.33,0,*74
1496829990.03,6182,18.13,73790.8,10.11,-0.97,-0.73,0,*7B
1496829991.26,6183,18.13,73788.3,10.07,-1.25,-0.97,0,*4F
1496829992.45,6184,18.13,73790.5,10.05,0.33,0.43,0,*75
1496829993.69,6185,18.13,73790.3,10.05,1.13,1.21,0,*72
1496829994.95,6186,18.13,73786.5,10.01,1.71,1.85,0,*7F
1496829996.18,6187,18.13,73790.5,10.03,1.29,1.29,0,*77
1496829997.38,6188,18.13,73788.5,10.03,1.63,1.75,0,*7F
1496829998.59,6189,18.13,73788.0,10.03,0.83,0.95,0,*7E
1496829999.79,6190,18.13,73786.8,9.99,0.63,0.83,0,*44
1496830001.0,6191,18.13,73784.3,9.99,0.63,0.83,0,*45
1496830002.21,6192,18.13,73788.0,9.95,0.63,0.71,0,*47
1496830003.43,6193,18.13,73788.3,9.93,1.05,1.17,0,*40
1496830004.69,6194,18.13,73790.0,9.89,1.37,1.51,0,*4F
1496830005.9,6195,18.13,73790.8,9.89,1.75,1.89,0,*4D
1496830007.1,6196,18.13,73790.0,9.91,1.47,1.75,0,*45
1496830008.32,6197,18.13,73788.5,9.89,1.01,1.13,0,*4F
1496830009.52,6198,18.13,73788.3,9.87,1.01,1.13,0,*4E
1496830010.71,6199,18.13,73786.0,9.87,1.83,1.93,0,*4D
1496830011.93,6200,18.13,73788.3,9.87,1.47,1.71,0,*4A
1496830013.15,6201,18.13,73786.5,9.85,1.21,1.41,0,*4A
1496830014.37,6202,18.13,73792.0,9.85,1.05,1.21,0,*49
1496830015.59,6203,18.13,73790.5,9.81,0.91,1.01,0,*72
1496830016.81,6204,18.13,73788.3,9.81,1.41,1.63,0,*4D
1496830018.06,6205,18.13,73790.5,9.81,2.51,2.73,0,*4C
1496830019.28,6206,18.13,73790.8,9.81,2.35,2.43,0,*4E
1496830020.5,6207,18.13,73790.3,9.81,2.35,2.43,0,*4F
1496830021.74,6208,18.13,73788.0,9.81,2.21,2.47,0,*41
1496830022.96,6209,18.13,73788.8,9.81,3.29,3.53,0,*4D
1496830024.18,6210,18.13,73788.0,9.81,1.71,1.75,0,*4C
1496830025.41,6211,18.13,73792.8,9.81,2.47,2.61,0,*4D
1496830026.66,6212,18.13,73794.0,9.81,2.51,2.51,0,*4A
1496830027.91,6213,18.13,73794.3,9.81,1.85,2.01,0,*44
1496830029.15,6214,18.13,73792.0,9.81,2.01,2.21,0,*4E
1496830030.39,6215,18.13,73792.3,9.81,1.89,2.01,0,*4E
1496830031.56,6216,18.13,73796.0,9.79,2.95,2.95,0,*49
1496830032.79,6217,18.13,73796.3,9.81,2.91,3.15,0,*42
1496830034.0,6218,18.13,73798.0,9.81,2.21,2.35,0,*45
1496830035.25,6219,18.13,73796.0,9.81,2.59,2.85,0,*40
1496830036.47,6220,18.13,73794.5,9.81,3.29,3.53,0,*46
1496830037.71,6221,18.13,73798.0,9.81,3.45,3.53,0,*4D
1496830038.91,6222,18.13,73796.0,9.83,2.55,2.65,0,*48
1496830040.13,6223,18.13,73796.5,9.83,2.25,2.39,0,*47
1496830041.34,6224,18.13,73794.3,9.83,2.73,2.85,0,*44
1496830042.57,6225,18.13,73798.3,9.83,3.07,3.23,0,*4A
1496830043.79,6226,18.13,73794.3,9.83,3.37,3.67,0,*4A
1496830045.01,6227,18.13,73792.0,9.85,2.61,2.89,0,*4E
1496830046.24,6228,18.13,73792.8,9.85,2.39,2.65,0,*4E
1496830047.47,6229,18.13,73796.0,9.85,2.39,2.61,0,*4B
1496830048.66,6230,18.13,73792.5,9.83,2.77,2.95,0,*44
1496830049.85,6231,18.13,73792.5,9.83,3.59,3.79,0,*4B
1496830051.07,6232,18.13,73792.3,9.85,3.93,4.01,0,*40
1496830052.27,6233,18.13,73790.8,9.85,4.07,4.27,0,*4F
1496830053.51,6234,18.13,73794.0,9.89,3.33,3.53,0,*40
1496830054.71,6235,18.13,73792.0,9.89,3.85,3.89,0,*4B
1496830055.93,6236,18.13,73788.5,9.89,3.79,3.85,0,*47
1496830057.13,6237,18.13,73794.0,9.89,4.11,4.27,0,*40
1496830058.31,6238,18.13,73788.8,9.91,4.15,4.33,0,*47
1496830059.51,6239,18.13,73792.0,9.91,3.97,4.07,0,*4C
1496830060.73,6240,18.13,73792.3,9.95,3.33,3.53,0,*4E
1496830061.92,6241,18.13,73794.3,9.93,3.93,4.11,0,*42
1496830063.12,6242,18.13,73792.5,9.95,4.45,4.63,0,*4E
1496830064.32,6243,18.13,73792.8,9.95,4.57,4.67,0,*48
1496830065.52,6244,18.13,73794.3,9.99,4.05,4.15,0,*41
1496830066.77,6245,18.13,73788.5,10.01,2.89,3.03,0,*7B
1496830067.97,6246,18.13,73790.5,9.99,3.59,3.75,0,*4C
1496830069.19,6247,18.13,73790.3,10.01,2.95,3.03,0,*74
1496830070.38,6248,18.13,73790.3,9.99,2.85,2.99,0,*41
1496830071.6,6249,18.13,73790.8,9.99,2.05,2.05,0,*4D
1496830072.85,6250,18.13,73786.0,9.93,1.09,1.17,0,*40
1496830074.03,6251,18.13,73786.0,9.91,1.75,1.75,0,*4C
1496830075.25,6252,18.13,73790.0,9.91,2.01,2.09,0,*47
1496830076.5,6253,18.13,73790.8,9.89,1.63,1.63,0,*47
1496830077.74,6254,18.13,73790.3,9.89,0.87,0.87,0,*40
1496830078.98,6255,18.13,73790.0,9.85,0.95,1.17,0,*76
1496830080.2,6256,18.13,73788.5,9.83,1.93,2.17,0,*47
1496830081.41,6257,18.13,73792.8,9.83,2.39,2.65,0,*40
1496830082.61,6258,18.13,73792.0,9.83,2.61,2.81,0,*48
1496830083.87,6259,18.13,73788.8,9.81,3.15,3.41,0,*44
1496830085.06,6260,18.13,73792.0,9.83,3.59,3.79,0,*4F
1496830086.28,6261,18.13,73794.5,9.83,3.11,3.23,0,*4D
1496830087.5,6262,18.13,73792.3,9.83,3.33,3.49,0,*42
1496830088.72,6263,18.13,73794.3,9.83,3.49,3.71,0,*45
1496830089.93,6264,18.13,73790.8,9.85,4.27,4.41,0,*4F
1496830091.12,6265,18.13,73792.8,9.87,3.93,4.01,0,*40
1496830092.32,6266,18.13,73796.0,9.87,3.75,3.85,0,*40
1496830093.52,6267,18.13,73792.0,9.87,3.59,3.71,0,*44
1496830094.74,6268,18.13,73790.5,9.89,3.63,3.75,0,*48
1496830095.96,6269,18.13,73788.8,9.89,3.53,3.63,0,*4D
1496830097.18,6270,18.13,73792.0,9.91,3.75,3.97,0,*43
1496830098.38,6271,18.13,73792.3,9.91,4.01,4.27,0,*4A
1496830099.58,6272,18.13,73788.8,9.91,3.29,3.41,0,*43
1496830100.78,6273,18.13,73790.8,9.91,3.89,3.97,0,*43
1496830101.96,6274,18.13,73792.0,9.91,3.85,3.89,0,*47
1496830103.16,6275,18.13,73792.3,9.91,3.29,3.33,0,*41
1496830104.38,6276,18.13,73794.0,9.89,3.41,3.63,0,*40
1496830105.58,6277,18.13,73798.3,9.91,3.41,3.63,0,*48
1496830106.77,6278,18.13,73792.0,9.91,3.45,3.63,0,*43
1496830107.97,6279,18.13,73792.0,9.91,3.97,4.07,0,*48
1496830109.19,6280,18.13,73792.8,9.93,4.01,4.11,0,*43
1496830110.41,6281,18.13,73792.3,9.93,4.11,4.31,0,*41
1496830111.61,6282,18.13,73792.0,9.93,3.93,4.11,0,*4D
1496830112.8,6283,18.13,73794.0,9.95,4.67,4.89,0,*47
1496830113.98,6284,18.13,73792.5,9.95,4.19,4.33,0,*48
1496830115.16,6285,18.13,73790.5,9.95,4.07,4.23,0,*47
1496830116.36,6286,18.13,73788.5,9.95,4.57,4.79,0,*4E
1496830117.56,6287,18.13,73794.5,9.99,4.45,4.63,0,*4B
1496830118.78,6288,18.13,73792.8,10.01,4.67,4.89,0,*79
1496830120.0,6289,18.13,73792.3,10.01,4.01,4.07,0,*7E
1496830121.22,6290,18.13,73794.0,10.01,3.55,3.67,0,*71
1496830122.44,6291,18.13,73790.3,10.01,3.25,3.37,0,*72
1496830123.69,6292,18.13,73788.8,10.01,3.41,3.45,0,*76
1496830124.92,6293,18.13,73792.5,10.01,3.41,3.55,0,*76
1496830126.15,6294,18.13,73790.3,10.01,3.29,3.41,0,*7A
1496830127.35,6295,18.13,73790.0,9.99,2.99,3.03,0,*4E
1496830128.57,6296,18.13,73792.3,9.99,3.23,3.37,0,*4A
1496830129.82,6297,18.13,73792.3,10.01,3.79,3.75,0,*7B
1496830131.04,6298,18.13,73796.3,9.99,2.89,3.03,0,*42
1496830132.26,6299,18.13,73794.5,9.93,2.99,3.19,0,*43